DateTimeUTC,F1_A11,F1_S11,BsB_S11,BsG_S11,BsR_S11,BbsB_S11,BbsG_S11,BbsR_S11,BaB_A11,BaG_A11,BaR_A11,Tu_S11,T_S11,Uu_S11,U_S11,P_S11,T1_A11
2021-07-01T05:00:00Z,00000200,20000000,,,,,,,0000.06,-000.06,0000.11,18.9,25.6,02.3,01.5,0669.9,31.2
2021-07-01T05:01:00Z,00000200,20000000,,,,,,,-000.14,-000.14,-000.15,18.9,25.6,02.3,01.5,0669.9,31.2
2021-07-01T05:02:00Z,00000200,20000000,,,,,,,0000.17,0000.23,0000.38,18.9,25.7,02.3,01.5,0669.9,31.1
2021-07-01T05:03:00Z,00000200,60000000,,,,,,,-000.08,0000.19,-000.06,18.9,25.7,02.3,01.5,0669.9,31.1
2021-07-01T05:04:00Z,00000200,40000000,-000.12,-000.35,0000.25,0000.70,-000.15,0000.32,0000.34,0000.17,0000.18,18.9,25.5,02.5,01.7,0670.8,31.1
2021-07-01T05:05:00Z,00000200,00000000,-000.04,-000.01,-000.03,0000.07,0000.29,0000.18,-000.15,-000.11,-000.19,18.8,25.4,02.6,01.8,0670.9,31.1
2021-07-01T05:06:00Z,00000200,00000000,0000.60,0000.23,-000.10,-000.50,-000.05,0000.30,0000.04,-000.27,-000.13,18.8,25.3,02.5,01.7,0670.9,31.1
2021-07-01T05:07:00Z,00000200,00000000,0000.76,-000.21,0000.29,0000.13,0000.07,0000.17,0000.10,0000.33,0000.34,18.7,25.3,02.6,01.7,0670.9,31.1
2021-07-01T05:08:00Z,00000200,00000000,0000.04,-000.12,0000.22,0000.34,0000.08,-000.20,0000.32,0000.15,-000.05,18.6,25.2,02.7,01.8,0670.9,31.1
2021-07-01T05:09:00Z,00000200,00000000,0000.24,0000.14,0000.09,0000.32,-000.00,0000.37,-000.00,-000.07,0000.32,18.6,25.2,02.8,01.9,0670.9,31.1
2021-07-01T05:10:00Z,00000200,00000000,-000.31,-000.10,0000.15,0000.36,-000.11,0000.33,0000.24,0000.53,0000.16,18.7,25.2,02.8,01.9,0670.9,31.1
2021-07-01T05:11:00Z,00000200,00000000,0000.27,0000.23,-000.00,0000.25,0000.05,0000.14,0000.06,-000.29,-000.18,18.8,25.2,03.0,02.0,0670.9,31.1
2021-07-01T05:12:00Z,00000200,00000000,-000.09,0000.13,0000.25,0000.59,0000.26,0000.13,0000.18,0000.13,0000.18,18.8,25.3,02.9,01.9,0670.9,31.1
2021-07-01T05:13:00Z,00000200,00000000,0000.43,0000.04,0000.30,0000.03,0000.16,0000.18,0000.02,0000.43,0000.35,18.9,25.3,02.9,02.0,0670.9,31.1
2021-07-01T05:14:00Z,00000200,00000000,-000.00,-000.01,0000.11,-000.47,-000.06,0000.16,-000.04,0000.10,-000.33,19.0,25.3,03.1,02.1,0670.9,31.1
2021-07-01T05:15:00Z,00000200,00000000,0000.57,0000.08,0000.23,-000.26,-000.01,0000.16,-000.05,-000.31,0000.25,19.0,25.4,02.9,02.0,0670.9,31.2
2021-07-01T05:16:00Z,00000200,00000000,-000.05,0000.22,0000.31,-000.01,0000.07,0000.06,0000.27,0000.30,-000.03,19.1,25.4,02.9,02.0,0671.0,31.2
2021-07-01T05:17:00Z,00000200,00000000,0000.68,0000.21,0000.00,-000.15,0000.17,0000.14,-000.17,-000.15,-000.25,19.1,25.4,03.0,02.0,0671.0,31.2
2021-07-01T05:18:00Z,00000200,00000000,0000.17,0000.18,0000.03,0000.27,0000.04,0000.05,-000.09,0000.01,0000.24,19.1,25.5,03.0,02.0,0671.0,31.2
2021-07-01T05:19:00Z,00000200,00000000,0000.25,-000.03,0000.21,0000.53,0000.24,-000.16,-000.16,0000.06,0000.04,19.1,25.4,03.1,02.1,0671.0,31.1
2021-07-01T05:20:00Z,00000200,00000000,-000.27,0000.38,0000.30,-000.04,0000.27,0000.28,0000.71,0000.09,-000.38,19.0,25.4,03.1,02.1,0671.0,31.1
2021-07-01T05:21:00Z,00000200,00000000,0000.14,0000.06,0000.17,-000.03,0000.16,-000.08,-000.19,0000.06,0000.26,18.9,25.3,03.1,02.1,0671.0,31.1
2021-07-01T05:22:00Z,00000200,00000000,-000.32,-000.21,0000.13,-000.34,-000.11,-000.09,0000.14,-000.23,0000.36,18.9,25.3,03.2,02.1,0671.0,31.1
2021-07-01T05:23:00Z,00000200,00000000,0000.49,0000.27,0000.42,0000.25,0000.26,-000.06,-000.03,-000.04,-000.01,18.8,25.3,03.1,02.1,0670.9,31.1
2021-07-01T05:24:00Z,00000200,00000000,0000.54,0000.35,0000.11,-000.26,-000.00,-000.08,0000.16,0000.55,0000.01,18.8,25.3,03.1,02.1,0671.0,31.1
2021-07-01T05:25:00Z,00000200,00000000,0000.17,0000.20,0000.19,-000.03,-000.05,0000.05,0000.10,-000.18,0000.26,18.9,25.3,03.2,02.2,0671.0,31.1
2021-07-01T05:26:00Z,00000200,00000000,0001.07,0000.27,0000.10,-000.38,0000.01,0000.26,-000.13,0000.28,-000.32,18.9,25.3,03.3,02.2,0671.0,31.1
2021-07-01T05:27:00Z,00000200,00000000,0000.98,0000.38,-000.00,-000.42,0000.24,0000.06,0000.26,0000.21,0000.40,19.0,25.3,03.3,02.2,0671.0,31.1
2021-07-01T05:28:00Z,00000200,00000000,0000.50,-000.13,0000.06,-000.40,0000.02,0000.11,0000.18,-000.12,-000.13,19.1,25.4,03.4,02.3,0671.0,31.2
2021-07-01T05:29:00Z,00000200,00000000,0000.53,0000.20,-000.21,-000.16,0000.37,0000.02,0000.09,0000.16,0000.24,19.1,25.4,03.4,02.3,0671.0,31.1
2021-07-01T05:30:00Z,00000200,00000000,-000.33,0000.01,-000.18,0000.05,0000.06,0000.13,-000.24,-000.27,0000.11,19.1,25.4,03.4,02.3,0671.0,31.2
2021-07-01T05:31:00Z,00000200,00000000,0000.30,0000.20,0000.05,0000.12,0000.03,0000.17,0000.22,0000.15,0000.00,19.1,25.4,03.3,02.2,0671.1,31.1
2021-07-01T05:32:00Z,00000200,00000000,0000.07,0000.21,-000.19,-000.12,0000.17,-000.05,-000.16,-000.14,-000.35,19.0,25.4,03.3,02.2,0671.1,31.1
2021-07-01T05:33:00Z,00000200,00000000,0000.39,0000.14,0000.09,-000.23,-000.18,0000.21,0000.02,0000.25,0000.19,19.0,25.4,03.3,02.3,0671.1,31.1
2021-07-01T05:34:00Z,00000200,00000000,0000.08,0000.09,0000.13,-000.12,-000.06,0000.33,0000.16,-000.16,-000.22,18.9,25.3,03.2,02.2,0671.1,31.1
2021-07-01T05:35:00Z,00000200,00000000,0000.21,0000.00,-000.09,0000.14,0000.25,0000.02,-000.11,0000.09,-000.13,18.8,25.3,03.3,02.2,0671.1,31.1
2021-07-01T05:36:00Z,00000200,00000000,0000.09,-000.11,0000.03,0000.63,0000.00,0000.25,0000.10,0000.05,0000.02,18.8,25.2,03.3,02.2,0671.1,31.1
2021-07-01T05:37:00Z,00000200,00000000,0000.22,-000.09,0000.21,0000.30,0000.14,0000.17,-000.24,-000.11,0000.13,18.7,25.2,03.4,02.3,0671.1,31.0
2021-07-01T05:38:00Z,00000200,00000000,0000.60,0000.10,0000.12,-000.38,0000.02,0000.28,0000.24,-000.08,0000.08,18.6,25.1,03.4,02.3,0671.1,31.0
2021-07-01T05:39:00Z,00000200,00000000,0000.43,-000.06,-000.02,0000.07,0000.06,-000.08,0000.07,0000.27,-000.03,18.6,25.1,03.4,02.3,0671.1,31.0
2021-07-01T05:40:00Z,00000200,00000000,0000.16,-000.06,-000.08,0000.01,0000.20,0000.04,0000.21,0000.17,-000.00,18.7,25.1,03.4,02.3,0671.1,31.1
2021-07-01T05:41:00Z,00000200,00000000,0000.09,0000.14,0000.24,0000.36,0000.01,0000.20,0000.23,-000.32,0000.32,18.8,25.1,03.4,02.3,0671.2,31.1
2021-07-01T05:42:00Z,00000200,00000000,0000.28,0000.31,0000.14,0000.08,-000.09,0000.04,-000.28,0000.48,-000.04,18.8,25.2,03.4,02.3,0671.2,31.1
2021-07-01T05:43:00Z,00000200,00000000,-000.05,0000.06,0000.19,-000.31,-000.04,0000.23,0000.29,-000.25,0000.18,18.9,25.2,03.3,02.3,0671.2,31.1
2021-07-01T05:44:00Z,00000200,00000000,0000.27,0000.43,-000.13,-000.10,0000.18,0000.18,-000.19,-000.10,-000.15,19.0,25.3,03.4,02.3,0671.2,31.1
2021-07-01T05:45:00Z,00000200,00000000,0000.91,0000.13,0000.57,0000.03,0000.39,0000.37,-000.24,-000.23,-000.11,19.0,25.3,03.4,02.3,0671.2,31.1
2021-07-01T05:46:00Z,00000200,00000000,0000.47,0000.40,0000.37,0000.48,0000.15,0000.09,-000.22,-000.18,-000.20,19.0,25.3,03.3,02.2,0671.2,31.1
2021-07-01T05:47:00Z,00000200,00000000,0001.00,-000.06,0000.16,0000.20,0000.10,0000.18,0000.16,0000.23,0000.15,18.9,25.3,03.3,02.3,0671.3,31.1
2021-07-01T05:48:00Z,00000200,00000000,0000.03,0000.32,0000.16,0000.18,0000.09,-000.03,-000.08,-000.04,-000.21,18.8,25.2,03.3,02.2,0671.3,31.1
2021-07-01T05:49:00Z,00000200,00000000,-000.20,0000.04,-000.02,0000.45,0000.17,0000.33,0000.39,0000.20,0000.08,18.8,25.2,03.2,02.2,0671.3,31.1
2021-07-01T05:50:00Z,00000200,00000000,0000.12,-000.10,0000.41,0000.09,0000.13,0000.12,-000.36,0000.12,0000.00,18.7,25.1,03.3,02.2,0671.3,31.0
2021-07-01T05:51:00Z,00000200,00000000,0000.58,0000.10,0000.13,0000.40,0000.11,-000.01,0000.15,-000.24,0000.04,18.6,25.1,03.3,02.2,0671.3,31.0
2021-07-01T05:52:00Z,00000200,00000000,0000.47,0000.22,0000.14,0000.26,0000.12,0000.04,-000.08,-000.05,0000.09,18.5,25.0,03.2,02.1,0671.2,31.0
2021-07-01T05:53:00Z,00000200,00000000,0000.01,0000.09,0000.10,-000.40,0000.30,0000.19,0000.33,-000.07,0000.17,18.5,25.0,03.2,02.2,0671.2,31.0
2021-07-01T05:54:00Z,00000200,00000000,-000.08,0000.26,-000.12,0000.07,-000.17,0000.21,-000.39,0000.29,-000.11,18.5,25.0,03.1,02.1,0671.3,31.0
2021-07-01T05:55:00Z,00000200,00000000,0000.33,0000.20,0000.01,0000.21,0000.26,-000.08,0000.15,-000.18,-000.12,18.6,25.0,03.1,02.1,0671.3,31.0
2021-07-01T05:56:00Z,00000200,00000000,0000.35,-000.07,0000.08,-000.46,0000.27,0000.21,-000.42,-000.02,-000.22,18.6,25.0,03.0,02.1,0671.3,31.1
2021-07-01T05:57:00Z,00000200,40000000,,,,,,,0000.39,-000.19,0000.19,18.7,25.1,02.5,01.7,0671.4,31.1
2021-07-01T05:58:00Z,00000200,60000000,,,,,,,-000.27,0000.11,-000.08,18.5,25.3,02.9,01.9,0670.4,31.1
2021-07-01T05:59:00Z,00000200,20000000,,,,,,,0000.02,0000.28,0000.33,18.5,25.4,02.9,01.9,0670.3,31.1
